Overview Statistics Trail Chart Weather Telemetry Raw packets
 

This is the latest recevied weather packets stored in our database for station/object K3RUP-1. If no packets are shown the sender has not sent any weather packets the latest 10 day(s).

<< 44 45 46 47 48 49 50 >>
Time Temp. Humidity Pressure Rain* Wind** Luminosity Snow
1788387822 22.78° C 99% 1016.5 hPa 0 mm - 60 W/m² -
1788387517 22.78° C 99% 1016.9 hPa 0 mm - 68 W/m² -
1788387216 22.78° C 99% 1016.4 hPa 0 mm - 69 W/m² -
1788386912 22.78° C 99% 1016.7 hPa 0 mm - 59 W/m² -
1788386611 22.78° C 99% 1017 hPa 0 mm - 65 W/m² -
1788386306 23.33° C 99% 1017.1 hPa 0 mm - 72 W/m² -
1788386001 22.78° C 99% 1017.3 hPa 0 mm - 78 W/m² -
1788385697 22.78° C 99% 1017.2 hPa 0 mm - 82 W/m² -
1788385396 22.78° C 99% 1017.2 hPa 0 mm - 84 W/m² -
1788385091 23.33° C 99% 1017.4 hPa 0 mm - 82 W/m² -
1788384786 22.78° C 99% 1017.5 hPa 0 mm - 80 W/m² -
1788384485 22.78° C 99% 1017.5 hPa 0 mm - 73 W/m² -
1788384203 22.78° C 99% 1017.4 hPa 0 mm - 63 W/m² -
1788383878 22.78° C 99% 1017.6 hPa 0 mm - 55 W/m² -
1788383573 22.78° C 99% 1017.3 hPa 0 mm - 51 W/m² -
1788383268 22.78° C 99% 1017.4 hPa 0 mm - 46 W/m² -
1788382963 22.78° C 99% 1017.4 hPa 0 mm - 42 W/m² -
1788382661 22.78° C 99% 1017.4 hPa 0 mm - 42 W/m² -
1788382356 22.78° C 99% 1017.3 hPa 0 mm - 43 W/m² -
1788382051 22.78° C 99% 1017.1 hPa 0 mm - 45 W/m² -
1788381747 22.78° C 99% 1017.2 hPa 0 mm - 48 W/m² -
1788381442 22.78° C 99% 1017.3 hPa 0 mm - 53 W/m² -
1788381142 22.78° C 99% 1017.1 hPa 0 mm - 55 W/m² -
1788380836 22.78° C 99% 1017 hPa 0 mm - 63 W/m² -
1788380533 22.78° C 99% 1017.2 hPa 0 mm - 73 W/m² -

* Rain latest hour (hover to see other rain measurements)
** Current wind speed in m/s (hover to see current wind gust speed)